STARLINK-35454, 66236

Orbit data source: Space-Track

STARLINK-35454, 66236 is a payload satellite owned by SpaceX/Seattle (US) in LEO that was launched on Wed, 29 Oct 2025 UTC via an FALCON 9 launch vehicle from the Air Force Eastern Test Range (AFETR). Payload-class satellites include a variety of spacecraft equipped with specific instruments for various scientific and technological missions. These include communications satellites like Starlink; space stations such as the ISS; scientific satellites like the Hubble; Earth observation satellites from companies like Planet Labs, Umbra, and HawkEye 360; GPS; miniature CubeSats for education and research; and military/defense satellites.

Loading next visibility...
Identifier
66236, 2025-245C
Orbit
LEO
Country
Flag of USUS
Related business
Manufacturer
SpaceX/Seattle
Mission
Operational Commercial Communications
Bus & Motor
STARLINK V2MO, Unknown motor
Mass
575 kg wet, ~530 kg dry
Launch date (UTC)
2025-10-29 (8 months ago)
Launch vehicle
FALCON 9
Launch site
Air Force Eastern Test Range (AFETR)
Object type
Payload
Rocket body
Debris
Shape & HBR
Box + 2 Pan, 17.7 m
Radar Cross Section
36.964 m², Large (>1 m²)

Expand to show TLE details & history
Last TLE update: 12 hours ago

TLE from 12 hours ago
0 STARLINK-35454
1 66236U 25245C   26171.36255338  .00010258  00000-0  35788-3 0  9993
2 66236  53.1575 167.1740 0001242  95.5245 264.5897 15.30209727 36811
Epoch: 2026-06-20T08:42Z
TLE epoch observation values (Epoch: 2026-06-20T08:42:04.612Z)
Latitude
-0.00003°
Longitude
128.0765°
Altitude
476.166 km
Speed
7.629 km/s
True Right ascension
11h 08m 41s
True Declination
0° 00' 00"
Sunlit
Object was in daylight at epoch
Visualization orbit readout
Latitude
Unknown
Longitude
Unknown
Altitude
Unknown
Speed
Unknown
Apparent Right ascension
Unknown
Apparent Declination
Unknown
Sunlit
N/A
Visualization observer readout
Local Sidereal Time
07:17:03
Azimuth
Unknown
Elevation
Unknown
Doppler factor
Unknown
Orbital elements
Apogee altitude
476.294 km
Perigee altitude
474.592 km
Semi-major axis
6,853.58 km
Eccentricity
0.00012
Inclination
53.1575°
RAAN
167.174°
Arg. of periapsis
95.5245°
True anomaly
264.57553°
Mean anomaly
264.5897°
Eccentric anomaly
264.58262°
Mean motion
3.82531 °/min
Orbital period
94.11 mins
BSTAR
0.00035788
Loading maneuver chart data...
Computing Atmospheric mass density...
Loading historical data...
Loading historical data...
Loading historical data...
Loading historical data...
Loading historical data...
Loading historical data...
Loading historical data...

Documentation

Showing up to 5 results
|